Location: St Paul
(44.9440°N, 93.0930°W)
Time: 07:25:14
(UTC-05:00)

ISS - Visible Passes

Search period start: 21 October 2017 00:00
Search period end: 31 October 2017 00:00
Orbit: 401 x 408 km, 51.6° (Epoch: 22 October)

Date Brightness Start Highest point End Pass type
(mag) Time Alt. Az. Time Alt. Az. Time Alt. Az.
27 Oct -0.5 07:05:32 10° SSE 07:06:49 12° SE 07:08:06 10° ESE visible
29 Oct -1.6 06:55:22 10° SSW 06:58:07 25° SE 07:00:53 10° E visible
30 Oct -0.9 06:04:00 10° SSE 06:05:52 14° SE 06:07:45 10° E visible
